Time,TemperatureF,DewpointF,PressureIn,WindDirection,WindDirectionDegrees,WindSpeedMPH,WindSpeedGustMPH,Humidity,HourlyPrecipIn,Conditions,Clouds,dailyrainin,SoftwareType,DateUTC
2013-09-17 00:01:00,58.8,35.8,30.35,SSW,211,4.0,4.0,42,0.00,,,0.00,WeatherCatV1.21B27,2013-09-17 07:01:00,
2013-09-17 00:06:00,58.6,35.6,30.35,SSW,208,2.7,3.6,42,0.00,,,0.00,WeatherCatV1.21B27,2013-09-17 07:06:00,
2013-09-17 00:11:00,58.5,35.5,30.35,South,187,3.1,5.4,42,0.00,,,0.00,WeatherCatV1.21B27,2013-09-17 07:11:00,
2013-09-17 00:16:00,58.3,35.3,30.35,South,187,3.1,4.0,42,0.00,,,0.00,WeatherCatV1.21B27,2013-09-17 07:16:00,
2013-09-17 00:21:00,58.1,35.1,30.35,SSW,192,2.7,4.0,42,0.00,,,0.00,WeatherCatV1.21B27,2013-09-17 07:21:00,
2013-09-17 00:26:00,57.9,35.0,30.35,SW,217,2.2,3.1,42,0.00,,,0.00,WeatherCatV1.21B27,2013-09-17 07:26:00,
2013-09-17 00:31:00,57.7,35.4,30.35,South,172,3.1,3.1,43,0.00,,,0.00,WeatherCatV1.21B27,2013-09-17 07:31:00,
2013-09-17 00:36:00,57.6,35.2,30.35,SW,215,0.0,2.7,43,0.00,,,0.00,WeatherCatV1.21B27,2013-09-17 07:36:00,
2013-09-17 00:41:00,57.4,35.1,30.35,South,191,3.1,3.6,43,0.00,,,0.00,WeatherCatV1.21B27,2013-09-17 07:41:00,
2013-09-17 00:46:00,57.4,35.1,30.35,South,191,3.6,3.6,43,0.00,,,0.00,WeatherCatV1.21B27,2013-09-17 07:46:00,
2013-09-17 00:51:00,57.4,35.1,30.35,West,260,0.0,3.6,43,0.00,,,0.00,WeatherCatV1.21B27,2013-09-17 07:51:00,
2013-09-17 00:56:00,57.2,34.9,30.35,SW,223,0.0,3.1,43,0.00,,,0.00,WeatherCatV1.21B27,2013-09-17 07:56:00,
2013-09-17 01:01:00,57.0,35.3,30.35,SW,229,3.6,3.6,44,0.00,,,0.00,WeatherCatV1.21B27,2013-09-17 08:01:00,
2013-09-17 01:06:00,56.8,35.2,30.35,WSW,239,0.0,3.1,44,0.00,,,0.00,WeatherCatV1.21B27,2013-09-17 08:06:00,
2013-09-17 01:11:00,56.3,35.8,30.35,WSW,239,0.0,0.0,46,0.00,,,0.00,WeatherCatV1.21B27,2013-09-17 08:11:00,
2013-09-17 01:16:00,55.9,35.5,30.35,WSW,239,0.0,0.0,46,0.00,,,0.00,WeatherCatV1.21B27,2013-09-17 08:16:00,
2013-09-17 01:21:00,55.8,35.3,30.35,ESE,117,0.0,3.6,46,0.00,,,0.00,WeatherCatV1.21B27,2013-09-17 08:21:00,
2013-09-17 01:26:00,55.9,36.0,30.35,ESE,117,0.0,0.0,47,0.00,,,0.00,WeatherCatV1.21B27,2013-09-17 08:26:00,
2013-09-17 01:31:00,56.3,35.8,30.35,ESE,123,0.0,2.7,46,0.00,,,0.00,WeatherCatV1.21B27,2013-09-17 08:31:00,
2013-09-17 01:36:00,56.5,36.0,30.35,North,353,0.0,0.0,46,0.00,,,0.00,WeatherCatV1.21B27,2013-09-17 08:36:00,
2013-09-17 01:41:00,56.1,36.2,30.35,North,353,0.0,0.0,47,0.00,,,0.00,WeatherCatV1.21B27,2013-09-17 08:41:00,
2013-09-17 01:46:00,55.6,35.7,30.35,North,353,0.0,0.0,47,0.00,,,0.00,WeatherCatV1.21B27,2013-09-17 08:46:00,
2013-09-17 01:51:00,55.0,35.7,30.35,North,353,0.0,0.0,48,0.00,,,0.00,WeatherCatV1.21B27,2013-09-17 08:51:00,
2013-09-17 01:56:00,54.5,35.7,30.35,North,353,0.0,0.0,49,0.00,,,0.00,WeatherCatV1.21B27,2013-09-17 08:56:00,
2013-09-17 02:01:00,54.5,35.7,30.35,NE,35,0.0,0.0,49,0.00,,,0.00,WeatherCatV1.21B27,2013-09-17 09:01:00,
2013-09-17 02:06:00,54.3,36.1,30.35,NE,35,0.0,0.0,50,0.00,,,0.00,WeatherCatV1.21B27,2013-09-17 09:06:00,
2013-09-17 02:11:00,53.8,35.6,30.35,NE,35,0.0,0.0,50,0.00,,,0.00,WeatherCatV1.21B27,2013-09-17 09:11:00,
2013-09-17 02:16:00,53.6,35.4,30.35,NE,34,0.0,0.0,50,0.00,,,0.00,WeatherCatV1.21B27,2013-09-17 09:16:00,
2013-09-17 02:21:00,53.4,36.2,30.35,NE,35,0.0,0.0,52,0.00,,,0.00,WeatherCatV1.21B27,2013-09-17 09:21:00,
2013-09-17 02:26:00,53.2,36.1,30.35,NE,35,0.0,0.0,52,0.00,,,0.00,WeatherCatV1.21B27,2013-09-17 09:26:00,
2013-09-17 02:31:00,53.1,36.4,30.35,NE,34,0.0,0.0,53,0.00,,,0.00,WeatherCatV1.21B27,2013-09-17 09:31:00,
2013-09-17 02:36:00,52.7,36.0,30.35,NE,35,0.0,0.0,53,0.00,,,0.00,WeatherCatV1.21B27,2013-09-17 09:36:00,
2013-09-17 02:41:00,52.3,35.7,30.35,NE,34,0.0,0.0,53,0.00,,,0.00,WeatherCatV1.21B27,2013-09-17 09:41:00,
2013-09-17 02:46:00,52.0,35.9,30.35,NE,34,0.0,0.0,54,0.00,,,0.00,WeatherCatV1.21B27,2013-09-17 09:46:00,
2013-09-17 02:51:00,51.6,36.0,30.32,NE,34,0.0,0.0,55,0.00,,,0.00,WeatherCatV1.21B27,2013-09-17 09:51:00,
2013-09-17 02:56:00,51.6,36.9,30.32,NE,35,0.0,0.0,57,0.00,,,0.00,WeatherCatV1.21B27,2013-09-17 09:56:00,
2013-09-17 03:01:00,51.4,37.2,30.32,NE,34,0.0,0.0,58,0.00,,,0.00,WeatherCatV1.21B27,2013-09-17 10:01:00,
2013-09-17 03:06:00,51.4,37.2,30.35,NE,34,0.0,0.0,58,0.00,,,0.00,WeatherCatV1.21B27,2013-09-17 10:06:00,
2013-09-17 03:11:00,51.3,37.8,30.35,NE,34,0.0,0.0,60,0.00,,,0.00,WeatherCatV1.21B27,2013-09-17 10:11:00,
2013-09-17 03:16:00,51.3,37.8,30.35,NE,35,0.0,0.0,60,0.00,,,0.00,WeatherCatV1.21B27,2013-09-17 10:16:00,
2013-09-17 03:21:00,51.1,37.7,30.35,NE,35,0.0,0.0,60,0.00,,,0.00,WeatherCatV1.21B27,2013-09-17 10:21:00,
2013-09-17 03:26:00,50.9,37.9,30.35,NE,35,0.0,0.0,61,0.00,,,0.00,WeatherCatV1.21B27,2013-09-17 10:26:00,
2013-09-17 03:31:00,50.9,37.9,30.35,NE,35,0.0,0.0,61,0.00,,,0.00,WeatherCatV1.21B27,2013-09-17 10:31:00,
2013-09-17 03:36:00,50.7,37.8,30.32,NE,35,0.0,0.0,61,0.00,,,0.00,WeatherCatV1.21B27,2013-09-17 10:36:00,
2013-09-17 03:41:00,50.7,38.2,30.32,NE,34,0.0,0.0,62,0.00,,,0.00,WeatherCatV1.21B27,2013-09-17 10:41:00,
2013-09-17 03:46:00,50.5,38.4,30.32,NE,35,0.0,0.0,63,0.00,,,0.00,WeatherCatV1.21B27,2013-09-17 10:46:00,
2013-09-17 03:51:00,50.4,38.2,30.32,NE,35,0.0,0.0,63,0.00,,,0.00,WeatherCatV1.21B27,2013-09-17 10:51:00,
2013-09-17 03:56:00,50.4,39.0,30.32,NE,34,0.0,0.0,65,0.00,,,0.00,WeatherCatV1.21B27,2013-09-17 10:56:00,
2013-09-17 04:01:00,50.2,38.9,30.32,NE,35,0.0,0.0,65,0.00,,,0.00,WeatherCatV1.21B27,2013-09-17 11:01:00,
2013-09-17 04:07:00,50.4,39.4,30.32,NE,35,0.0,0.0,66,0.00,,,0.00,WeatherCatV1.21B27,2013-09-17 11:07:00,
2013-09-17 04:12:00,50.4,39.8,30.32,NE,35,0.0,0.0,67,0.00,,,0.00,WeatherCatV1.21B27,2013-09-17 11:12:00,
2013-09-17 04:17:00,50.5,40.0,30.32,NE,35,0.0,0.0,67,0.00,,,0.00,WeatherCatV1.21B27,2013-09-17 11:17:00,
2013-09-17 04:22:00,50.7,39.8,30.35,NE,35,0.0,0.0,66,0.00,,,0.00,WeatherCatV1.21B27,2013-09-17 11:22:00,
2013-09-17 04:27:00,50.5,39.6,30.35,NE,35,0.0,0.0,66,0.00,,,0.00,WeatherCatV1.21B27,2013-09-17 11:27:00,
2013-09-17 04:32:00,50.5,39.6,30.32,NE,35,0.0,0.0,66,0.00,,,0.00,WeatherCatV1.21B27,2013-09-17 11:32:00,
2013-09-17 04:37:00,50.4,39.4,30.32,NE,35,0.0,0.0,66,0.00,,,0.00,WeatherCatV1.21B27,2013-09-17 11:37:00,
2013-09-17 04:42:00,50.0,38.7,30.32,NE,34,0.0,0.0,65,0.00,,,0.00,WeatherCatV1.21B27,2013-09-17 11:42:00,
2013-09-17 04:47:00,49.8,38.9,30.35,NE,35,0.0,0.0,66,0.00,,,0.00,WeatherCatV1.21B27,2013-09-17 11:47:00,
2013-09-17 04:52:00,49.6,39.1,30.35,NE,34,0.0,0.0,67,0.00,,,0.00,WeatherCatV1.21B27,2013-09-17 11:52:00,
2013-09-17 04:57:00,49.6,39.5,30.35,NE,34,0.0,0.0,68,0.00,,,0.00,WeatherCatV1.21B27,2013-09-17 11:57:00,
2013-09-17 05:02:00,49.8,40.1,30.35,NE,34,0.0,0.0,69,0.00,,,0.00,WeatherCatV1.21B27,2013-09-17 12:02:00,
2013-09-17 05:07:00,49.6,39.5,30.32,North,0,0.0,0.0,68,0.00,,,0.00,WeatherCatV1.21B27,2013-09-17 12:07:00,
2013-09-17 05:12:00,49.3,38.8,30.32,North,0,0.0,0.0,67,0.00,,,0.00,WeatherCatV1.21B27,2013-09-17 12:12:00,
2013-09-17 05:17:00,48.9,38.5,30.32,North,0,0.0,0.0,67,0.00,,,0.00,WeatherCatV1.21B27,2013-09-17 12:17:00,
2013-09-17 05:22:00,48.6,38.5,30.32,North,0,0.0,0.0,68,0.00,,,0.00,WeatherCatV1.21B27,2013-09-17 12:22:00,
2013-09-17 05:27:00,48.4,38.3,30.32,North,0,0.0,0.0,68,0.00,,,0.00,WeatherCatV1.21B27,2013-09-17 12:27:00,
2013-09-17 05:32:00,48.2,38.5,30.32,North,0,0.0,0.0,69,0.00,,,0.00,WeatherCatV1.21B27,2013-09-17 12:32:00,
2013-09-17 05:37:00,48.0,38.3,30.32,North,0,0.0,0.0,69,0.00,,,0.00,WeatherCatV1.21B27,2013-09-17 12:37:00,
2013-09-17 05:42:00,48.4,39.8,30.32,North,0,0.0,0.0,72,0.00,,,0.00,WeatherCatV1.21B27,2013-09-17 12:42:00,
2013-09-17 05:47:00,48.0,39.4,30.32,North,0,0.0,0.0,72,0.00,,,0.00,WeatherCatV1.21B27,2013-09-17 12:47:00,
2013-09-17 05:52:00,47.7,39.1,30.32,North,0,0.0,0.0,72,0.00,,,0.00,WeatherCatV1.21B27,2013-09-17 12:52:00,
2013-09-17 05:57:00,47.7,39.1,30.32,North,0,0.0,0.0,72,0.00,,,0.00,WeatherCatV1.21B27,2013-09-17 12:57:00,
2013-09-17 06:02:00,47.7,39.1,30.32,North,0,0.0,0.0,72,0.00,,,0.00,WeatherCatV1.21B27,2013-09-17 13:02:00,
2013-09-17 06:07:00,47.7,39.1,30.32,North,0,0.0,0.0,72,0.00,,,0.00,WeatherCatV1.21B27,2013-09-17 13:07:00,
2013-09-17 06:12:00,47.7,39.4,30.32,North,0,0.0,0.0,73,0.00,,,0.00,WeatherCatV1.21B27,2013-09-17 13:12:00,
2013-09-17 06:17:00,47.8,39.6,30.32,North,0,0.0,0.0,73,0.00,,,0.00,WeatherCatV1.21B27,2013-09-17 13:17:00,
2013-09-17 06:22:00,48.0,40.1,30.32,North,0,0.0,0.0,74,0.00,,,0.00,WeatherCatV1.21B27,2013-09-17 13:22:00,
2013-09-17 06:27:00,47.8,40.0,30.32,North,0,0.0,0.0,74,0.00,,,0.00,WeatherCatV1.21B27,2013-09-17 13:27:00,
2013-09-17 06:32:00,47.8,40.0,30.32,North,0,0.0,0.0,74,0.00,,,0.00,WeatherCatV1.21B27,2013-09-17 13:32:00,
2013-09-17 06:37:00,47.8,40.0,30.32,North,0,0.0,0.0,74,0.00,,,0.00,WeatherCatV1.21B27,2013-09-17 13:37:00,
2013-09-17 06:42:00,47.8,40.3,30.32,North,0,0.0,0.0,75,0.00,,,0.00,WeatherCatV1.21B27,2013-09-17 13:42:00,
2013-09-17 06:47:00,48.0,40.5,30.32,North,0,0.0,0.0,75,0.00,,,0.00,WeatherCatV1.21B27,2013-09-17 13:47:00,
2013-09-17 06:52:00,48.4,40.8,30.32,North,0,0.0,0.0,75,0.00,,,0.00,WeatherCatV1.21B27,2013-09-17 13:52:00,
2013-09-17 06:57:00,48.6,41.0,30.32,North,0,0.0,0.0,75,0.00,,,0.00,WeatherCatV1.21B27,2013-09-17 13:57:00,
2013-09-17 07:02:00,48.6,41.0,30.32,North,0,0.0,0.0,75,0.00,,,0.00,WeatherCatV1.21B27,2013-09-17 14:02:00,
2013-09-17 07:07:00,48.7,41.5,30.32,North,0,0.0,0.0,76,0.00,,,0.00,WeatherCatV1.21B27,2013-09-17 14:07:00,
2013-09-17 07:12:00,48.9,41.7,30.32,North,0,0.0,0.0,76,0.00,,,0.00,WeatherCatV1.21B27,2013-09-17 14:12:00,
2013-09-17 07:17:00,49.1,41.9,30.32,North,0,0.0,0.0,76,0.00,,,0.00,WeatherCatV1.21B27,2013-09-17 14:17:00,
2013-09-17 07:22:00,49.3,42.0,30.32,North,0,0.0,0.0,76,0.00,,,0.00,WeatherCatV1.21B27,2013-09-17 14:22:00,
2013-09-17 07:27:00,49.5,42.2,30.32,North,0,0.0,0.0,76,0.00,,,0.00,WeatherCatV1.21B27,2013-09-17 14:27:00,
2013-09-17 07:32:00,49.6,42.4,30.32,North,0,0.0,0.0,76,0.00,,,0.00,WeatherCatV1.21B27,2013-09-17 14:32:00,
2013-09-17 07:37:00,50.0,42.7,30.32,North,0,0.0,0.0,76,0.00,,,0.00,WeatherCatV1.21B27,2013-09-17 14:37:00,
2013-09-17 07:42:00,50.5,43.9,30.32,North,0,0.0,0.0,78,0.00,,,0.00,WeatherCatV1.21B27,2013-09-17 14:42:00,
2013-09-17 07:47:00,51.1,44.1,30.32,North,0,0.0,0.0,77,0.00,,,0.00,WeatherCatV1.21B27,2013-09-17 14:47:00,
2013-09-17 07:52:00,51.3,44.0,30.32,North,0,0.0,0.0,76,0.00,,,0.00,WeatherCatV1.21B27,2013-09-17 14:52:00,
2013-09-17 07:57:00,51.4,44.1,30.32,North,0,0.0,0.0,76,0.00,,,0.00,WeatherCatV1.21B27,2013-09-17 14:57:00,
2013-09-17 08:02:00,51.6,44.0,30.32,North,0,0.0,0.0,75,0.00,,,0.00,WeatherCatV1.21B27,2013-09-17 15:02:00,
2013-09-17 08:07:00,51.4,43.8,30.32,North,0,0.0,0.0,75,0.00,,,0.00,WeatherCatV1.21B27,2013-09-17 15:07:00,
2013-09-17 08:12:00,51.4,42.7,30.32,North,0,0.0,0.0,72,0.00,,,0.00,WeatherCatV1.21B27,2013-09-17 15:12:00,
2013-09-17 08:17:00,51.4,42.7,30.32,North,0,0.0,0.0,72,0.00,,,0.00,WeatherCatV1.21B27,2013-09-17 15:17:00,
2013-09-17 08:22:00,51.6,42.5,30.32,North,0,0.0,0.0,71,0.00,,,0.00,WeatherCatV1.21B27,2013-09-17 15:22:00,
2013-09-17 08:27:00,52.0,42.5,30.32,North,0,0.0,0.0,70,0.00,,,0.00,WeatherCatV1.21B27,2013-09-17 15:27:00,
2013-09-17 08:32:00,52.5,42.7,30.32,North,0,0.0,0.0,69,0.00,,,0.00,WeatherCatV1.21B27,2013-09-17 15:32:00,
2013-09-17 08:37:00,53.1,42.8,30.32,North,0,0.0,0.0,68,0.00,,,0.00,WeatherCatV1.21B27,2013-09-17 15:37:00,
2013-09-17 08:42:00,53.4,42.0,30.32,North,0,3.1,3.1,65,0.00,,,0.00,WeatherCatV1.21B27,2013-09-17 15:42:00,
2013-09-17 08:47:00,54.0,41.2,30.32,North,0,0.0,0.0,62,0.00,,,0.00,WeatherCatV1.21B27,2013-09-17 15:47:00,
2013-09-17 08:52:00,54.1,41.0,30.32,North,0,0.0,0.0,61,0.00,,,0.00,WeatherCatV1.21B27,2013-09-17 15:52:00,
2013-09-17 08:57:00,54.3,40.7,30.32,North,0,0.0,0.0,60,0.00,,,0.00,WeatherCatV1.21B27,2013-09-17 15:57:00,
2013-09-17 09:02:00,54.5,40.9,30.32,North,0,0.0,0.0,60,0.00,,,0.00,WeatherCatV1.21B27,2013-09-17 16:02:00,
2013-09-17 09:07:00,55.0,40.5,30.32,North,0,0.0,0.0,58,0.00,,,0.00,WeatherCatV1.21B27,2013-09-17 16:07:00,
2013-09-17 09:12:00,55.0,40.5,30.32,North,0,0.0,0.0,58,0.00,,,0.00,WeatherCatV1.21B27,2013-09-17 16:12:00,
2013-09-17 09:17:00,55.0,39.6,30.32,North,0,0.0,0.0,56,0.00,,,0.00,WeatherCatV1.21B27,2013-09-17 16:17:00,
2013-09-17 09:22:00,54.9,39.0,30.32,North,0,0.0,0.0,55,0.00,,,0.00,WeatherCatV1.21B27,2013-09-17 16:22:00,
2013-09-17 09:27:00,55.2,39.3,30.32,North,0,0.0,0.0,55,0.00,,,0.00,WeatherCatV1.21B27,2013-09-17 16:27:00,
2013-09-17 09:32:00,55.8,40.3,30.32,North,0,3.1,3.1,56,0.00,,,0.00,WeatherCatV1.21B27,2013-09-17 16:32:00,
2013-09-17 09:37:00,56.3,38.9,30.32,North,0,0.0,0.0,52,0.00,,,0.00,WeatherCatV1.21B27,2013-09-17 16:37:00,
2013-09-17 09:42:00,56.7,38.7,30.32,North,0,0.0,0.0,51,0.00,,,0.00,WeatherCatV1.21B27,2013-09-17 16:42:00,
2013-09-17 09:47:00,57.4,38.4,30.32,North,0,2.7,3.1,49,0.00,,,0.00,WeatherCatV1.21B27,2013-09-17 16:47:00,
2013-09-17 09:52:00,57.6,36.9,30.32,North,0,0.0,0.0,46,0.00,,,0.00,WeatherCatV1.21B27,2013-09-17 16:52:00,
2013-09-17 09:57:00,58.5,38.3,30.32,North,0,0.0,0.0,47,0.00,,,0.00,WeatherCatV1.21B27,2013-09-17 16:57:00,
2013-09-17 10:02:00,58.8,37.5,30.29,North,0,0.0,0.0,45,0.00,,,0.00,WeatherCatV1.21B27,2013-09-17 17:02:00,
2013-09-17 10:07:00,59.5,36.4,30.29,North,0,0.0,0.0,42,0.00,,,0.00,WeatherCatV1.21B27,2013-09-17 17:07:00,
2013-09-17 10:12:00,59.9,36.1,30.29,NE,46,2.7,4.9,41,0.00,,,0.00,WeatherCatV1.21B27,2013-09-17 17:12:00,
2013-09-17 10:17:00,60.3,36.5,30.29,NE,36,0.0,0.0,41,0.00,,,0.00,WeatherCatV1.21B27,2013-09-17 17:17:00,
2013-09-17 10:22:00,60.6,36.8,30.29,NNE,27,0.0,0.0,41,0.00,,,0.00,WeatherCatV1.21B27,2013-09-17 17:22:00,
2013-09-17 10:27:00,61.2,36.0,30.29,NE,44,0.0,4.0,39,0.00,,,0.00,WeatherCatV1.21B27,2013-09-17 17:27:00,
2013-09-17 10:32:00,61.7,36.5,30.29,NE,44,0.0,0.0,39,0.00,,,0.00,WeatherCatV1.21B27,2013-09-17 17:32:00,
2013-09-17 10:37:00,62.4,35.8,30.29,NE,44,0.0,0.0,37,0.00,,,0.00,WeatherCatV1.21B27,2013-09-17 17:37:00,
2013-09-17 10:42:00,62.4,35.8,30.29,NE,44,0.0,0.0,37,0.00,,,0.00,WeatherCatV1.21B27,2013-09-17 17:42:00,
2013-09-17 10:47:00,62.4,35.8,30.29,NE,44,0.0,0.0,37,0.00,,,0.00,WeatherCatV1.21B27,2013-09-17 17:47:00,
2013-09-17 10:52:00,63.5,36.1,30.29,NE,44,0.0,0.0,36,0.00,,,0.00,WeatherCatV1.21B27,2013-09-17 17:52:00,
2013-09-17 10:57:00,63.0,34.9,30.29,NE,44,0.0,0.0,35,0.00,,,0.00,WeatherCatV1.21B27,2013-09-17 17:57:00,
2013-09-17 11:02:00,63.3,36.6,30.29,NE,44,0.0,0.0,37,0.00,,,0.00,WeatherCatV1.21B27,2013-09-17 18:02:00,
2013-09-17 11:07:00,63.7,35.5,30.29,ENE,61,4.0,4.0,35,0.00,,,0.00,WeatherCatV1.21B27,2013-09-17 18:07:00,
2013-09-17 11:12:00,64.0,35.8,30.29,NNE,30,0.0,0.0,35,0.00,,,0.00,WeatherCatV1.21B27,2013-09-17 18:12:00,
2013-09-17 11:17:00,64.8,35.7,30.29,NNE,22,3.6,4.0,34,0.00,,,0.00,WeatherCatV1.21B27,2013-09-17 18:17:00,
2013-09-17 11:22:00,65.5,35.6,30.29,NNE,17,0.0,6.3,33,0.00,,,0.00,WeatherCatV1.21B27,2013-09-17 18:22:00,
2013-09-17 11:27:00,64.9,35.1,30.29,NNE,24,0.0,0.0,33,0.00,,,0.00,WeatherCatV1.21B27,2013-09-17 18:27:00,
2013-09-17 11:32:00,65.3,35.5,30.26,North,8,2.2,3.1,33,0.00,,,0.00,WeatherCatV1.21B27,2013-09-17 18:32:00,
2013-09-17 11:37:00,65.1,35.3,30.26,ESE,107,0.0,2.7,33,0.00,,,0.00,WeatherCatV1.21B27,2013-09-17 18:37:00,
2013-09-17 11:42:00,65.5,35.6,30.26,East,89,0.0,0.0,33,0.00,,,0.00,WeatherCatV1.21B27,2013-09-17 18:42:00,
2013-09-17 11:47:00,65.8,35.2,30.26,NNW,340,2.2,4.0,32,0.00,,,0.00,WeatherCatV1.21B27,2013-09-17 18:47:00,
2013-09-17 11:52:00,66.2,36.2,30.26,SSE,147,0.0,0.0,33,0.00,,,0.00,WeatherCatV1.21B27,2013-09-17 18:52:00,
2013-09-17 11:57:00,66.2,34.7,30.26,ENE,74,0.0,0.0,31,0.00,,,0.00,WeatherCatV1.21B27,2013-09-17 18:57:00,
2013-09-17 12:02:00,66.2,34.7,30.26,East,83,3.1,3.1,31,0.00,,,0.00,WeatherCatV1.21B27,2013-09-17 19:02:00,
2013-09-17 12:07:00,66.9,34.5,30.26,ENE,57,0.0,3.1,30,0.00,,,0.00,WeatherCatV1.21B27,2013-09-17 19:07:00,
2013-09-17 12:12:00,67.3,34.8,30.26,NNE,13,0.0,2.2,30,0.00,,,0.00,WeatherCatV1.21B27,2013-09-17 19:12:00,
2013-09-17 12:17:00,66.9,33.6,30.23,East,86,0.0,2.7,29,0.00,,,0.00,WeatherCatV1.21B27,2013-09-17 19:17:00,
2013-09-17 12:22:00,67.1,34.6,30.23,East,86,0.0,2.7,30,0.00,,,0.00,WeatherCatV1.21B27,2013-09-17 19:22:00,
2013-09-17 12:27:00,68.0,34.5,30.23,SE,130,0.0,0.0,29,0.00,,,0.00,WeatherCatV1.21B27,2013-09-17 19:27:00,
2013-09-17 12:32:00,68.7,34.3,30.26,SE,130,0.0,0.0,28,0.00,,,0.00,WeatherCatV1.21B27,2013-09-17 19:32:00,
2013-09-17 12:37:00,68.9,34.5,30.26,SE,130,0.0,0.0,28,0.00,,,0.00,WeatherCatV1.21B27,2013-09-17 19:37:00,
2013-09-17 12:42:00,68.5,32.3,30.26,NE,47,3.6,4.9,26,0.00,,,0.00,WeatherCatV1.21B27,2013-09-17 19:42:00,
2013-09-17 12:47:00,68.4,33.1,30.23,NE,48,0.0,3.1,27,0.00,,,0.00,WeatherCatV1.21B27,2013-09-17 19:47:00,
2013-09-17 12:52:00,68.0,32.8,30.23,ESE,108,0.0,3.1,27,0.00,,,0.00,WeatherCatV1.21B27,2013-09-17 19:52:00,
2013-09-17 12:57:00,67.5,33.2,30.23,ESE,117,0.0,0.0,28,0.00,,,0.00,WeatherCatV1.21B27,2013-09-17 19:57:00,
2013-09-17 13:02:00,67.3,33.1,30.23,ESE,117,0.0,2.7,28,0.00,,,0.00,WeatherCatV1.21B27,2013-09-17 20:02:00,
2013-09-17 13:07:00,68.4,34.0,30.23,South,173,2.7,2.7,28,0.00,,,0.00,WeatherCatV1.21B27,2013-09-17 20:07:00,
2013-09-17 13:12:00,69.4,33.1,30.23,ESE,122,2.7,2.7,26,0.00,,,0.00,WeatherCatV1.21B27,2013-09-17 20:12:00,
2013-09-17 13:17:00,69.6,33.2,30.23,ESE,122,0.0,0.0,26,0.00,,,0.00,WeatherCatV1.21B27,2013-09-17 20:17:00,
2013-09-17 13:22:00,69.8,32.4,30.23,NE,44,3.1,3.6,25,0.00,,,0.00,WeatherCatV1.21B27,2013-09-17 20:22:00,
2013-09-17 13:27:00,70.2,31.7,30.23,NE,44,4.0,4.0,24,0.00,,,0.00,WeatherCatV1.21B27,2013-09-17 20:27:00,
2013-09-17 13:32:00,70.5,32.0,30.23,NE,44,0.0,0.0,24,0.00,,,0.00,WeatherCatV1.21B27,2013-09-17 20:32:00,
2013-09-17 13:38:00,70.2,31.7,30.23,NE,44,0.0,2.2,24,0.00,,,0.00,WeatherCatV1.21B27,2013-09-17 20:38:00,
2013-09-17 13:43:00,69.8,31.4,30.23,NE,44,0.0,2.7,24,0.00,,,0.00,WeatherCatV1.21B27,2013-09-17 20:43:00,
2013-09-17 13:48:00,69.8,31.4,30.23,ESE,122,0.0,0.0,24,0.00,,,0.00,WeatherCatV1.21B27,2013-09-17 20:48:00,
2013-09-17 13:53:00,70.2,32.7,30.23,ESE,122,0.0,0.0,25,0.00,,,0.00,WeatherCatV1.21B27,2013-09-17 20:53:00,
2013-09-17 13:58:00,70.5,33.0,30.23,ESE,122,0.0,0.0,25,0.00,,,0.00,WeatherCatV1.21B27,2013-09-17 20:58:00,
2013-09-17 14:03:00,71.1,32.4,30.20,ESE,122,0.0,0.0,24,0.00,,,0.00,WeatherCatV1.21B27,2013-09-17 21:03:00,
2013-09-17 14:08:00,72.1,32.3,30.20,West,262,3.1,3.6,23,0.00,,,0.00,WeatherCatV1.21B27,2013-09-17 21:08:00,
2013-09-17 14:13:00,72.7,31.6,30.20,WNW,296,3.6,4.9,22,0.00,,,0.00,WeatherCatV1.21B27,2013-09-17 21:13:00,
2013-09-17 14:18:00,73.0,33.0,30.20,NW,315,6.3,6.3,23,0.00,,,0.00,WeatherCatV1.21B27,2013-09-17 21:18:00,
2013-09-17 14:23:00,72.7,31.6,30.20,West,260,2.7,5.4,22,0.00,,,0.00,WeatherCatV1.21B27,2013-09-17 21:23:00,
2013-09-17 14:28:00,71.8,30.9,30.20,NW,324,3.6,3.6,22,0.00,,,0.00,WeatherCatV1.21B27,2013-09-17 21:28:00,
2013-09-17 14:33:00,71.1,30.3,30.20,NE,39,2.2,3.1,22,0.00,,,0.00,WeatherCatV1.21B27,2013-09-17 21:33:00,
2013-09-17 14:38:00,70.9,31.2,30.20,SW,225,0.0,0.0,23,0.00,,,0.00,WeatherCatV1.21B27,2013-09-17 21:38:00,
2013-09-17 14:43:00,71.2,31.5,30.20,South,190,0.0,2.2,23,0.00,,,0.00,WeatherCatV1.21B27,2013-09-17 21:43:00,
2013-09-17 14:48:00,71.2,31.5,30.20,ESE,111,0.0,3.6,23,0.00,,,0.00,WeatherCatV1.21B27,2013-09-17 21:48:00,
2013-09-17 14:53:00,71.2,31.5,30.20,NW,318,0.0,2.7,23,0.00,,,0.00,WeatherCatV1.21B27,2013-09-17 21:53:00,
2013-09-17 14:58:00,70.9,31.2,30.20,NNW,332,3.6,6.3,23,0.00,,,0.00,WeatherCatV1.21B27,2013-09-17 21:58:00,
2013-09-17 15:03:00,70.7,31.1,30.20,West,259,0.0,0.0,23,0.00,,,0.00,WeatherCatV1.21B27,2013-09-17 22:03:00,
2013-09-17 15:08:00,70.3,29.7,30.20,North,0,0.0,6.3,22,0.00,,,0.00,WeatherCatV1.21B27,2013-09-17 22:08:00,
2013-09-17 15:13:00,70.3,29.7,30.20,North,357,2.2,3.6,22,0.00,,,0.00,WeatherCatV1.21B27,2013-09-17 22:13:00,
2013-09-17 15:18:00,70.0,29.4,30.20,SW,229,6.3,6.3,22,0.00,,,0.00,WeatherCatV1.21B27,2013-09-17 22:18:00,
2013-09-17 15:23:00,69.8,30.3,30.20,WSW,257,3.1,4.0,23,0.00,,,0.00,WeatherCatV1.21B27,2013-09-17 22:23:00,
2013-09-17 15:28:00,69.1,29.7,30.20,NW,324,5.4,8.1,23,0.00,,,0.00,WeatherCatV1.21B27,2013-09-17 22:28:00,
2013-09-17 15:33:00,68.5,29.3,30.20,SSW,195,3.6,6.3,23,0.00,,,0.00,WeatherCatV1.21B27,2013-09-17 22:33:00,
2013-09-17 15:38:00,68.0,28.8,30.20,West,268,3.1,5.8,23,0.00,,,0.00,WeatherCatV1.21B27,2013-09-17 22:38:00,
2013-09-17 15:43:00,67.6,29.6,30.20,SW,218,3.1,8.7,24,0.00,,,0.00,WeatherCatV1.21B27,2013-09-17 22:43:00,
2013-09-17 15:48:00,67.5,30.4,30.20,WNW,287,3.1,4.9,25,0.00,,,0.00,WeatherCatV1.21B27,2013-09-17 22:48:00,
2013-09-17 15:53:00,67.3,30.2,30.20,NW,305,5.4,10.1,25,0.00,,,0.00,WeatherCatV1.21B27,2013-09-17 22:53:00,
2013-09-17 15:58:00,67.3,30.2,30.20,WNW,286,5.4,8.3,25,0.00,,,0.00,WeatherCatV1.21B27,2013-09-17 22:58:00,
2013-09-17 16:03:00,67.3,31.2,30.20,WSW,244,3.6,8.7,26,0.00,,,0.00,WeatherCatV1.21B27,2013-09-17 23:03:00,
2013-09-17 16:08:00,66.9,30.9,30.20,SW,220,5.4,8.3,26,0.00,,,0.00,WeatherCatV1.21B27,2013-09-17 23:08:00,
2013-09-17 16:13:00,66.6,30.6,30.20,WNW,288,5.4,5.4,26,0.00,,,0.00,WeatherCatV1.21B27,2013-09-17 23:13:00,
2013-09-17 16:18:00,66.4,31.4,30.20,WNW,285,2.7,4.0,27,0.00,,,0.00,WeatherCatV1.21B27,2013-09-17 23:18:00,
2013-09-17 16:23:00,66.4,31.4,30.20,West,273,2.2,5.8,27,0.00,,,0.00,WeatherCatV1.21B27,2013-09-17 23:23:00,
2013-09-17 16:28:00,66.2,31.2,30.20,NNW,341,3.1,6.3,27,0.00,,,0.00,WeatherCatV1.21B27,2013-09-17 23:28:00,
2013-09-17 16:33:00,66.2,32.1,30.20,South,169,3.1,5.8,28,0.00,,,0.00,WeatherCatV1.21B27,2013-09-17 23:33:00,
2013-09-17 16:38:00,65.8,31.8,30.20,WNW,284,0.0,8.3,28,0.00,,,0.00,WeatherCatV1.21B27,2013-09-17 23:38:00,
2013-09-17 16:43:00,65.7,32.5,30.20,NE,56,2.7,4.9,29,0.00,,,0.00,WeatherCatV1.21B27,2013-09-17 23:43:00,
2013-09-17 16:48:00,65.5,33.2,30.20,SW,216,8.3,8.3,30,0.00,,,0.00,WeatherCatV1.21B27,2013-09-17 23:48:00,
2013-09-17 16:53:00,64.9,34.4,30.20,North,350,3.6,7.2,32,0.00,,,0.00,WeatherCatV1.21B27,2013-09-17 23:53:00,
2013-09-17 16:58:00,64.2,34.5,30.20,South,170,0.0,3.1,33,0.00,,,0.00,WeatherCatV1.21B27,2013-09-17 23:58:00,
2013-09-17 17:03:00,63.5,34.6,30.20,East,81,2.2,4.0,34,0.00,,,0.00,WeatherCatV1.21B27,2013-09-18 00:03:00,
2013-09-17 17:08:00,62.8,34.7,30.20,NW,322,4.0,4.0,35,0.00,,,0.00,WeatherCatV1.21B27,2013-09-18 00:08:00,
2013-09-17 17:13:00,62.6,34.6,30.20,SSE,157,2.2,3.1,35,0.00,,,0.00,WeatherCatV1.21B27,2013-09-18 00:13:00,
2013-09-17 17:18:00,62.2,35.6,30.20,ESE,109,0.0,0.0,37,0.00,,,0.00,WeatherCatV1.21B27,2013-09-18 00:18:00,
2013-09-17 17:23:00,61.9,36.0,30.20,WSW,237,3.1,4.9,38,0.00,,,0.00,WeatherCatV1.21B27,2013-09-18 00:23:00,
2013-09-17 17:28:00,61.7,35.8,30.20,SSW,198,3.1,4.5,38,0.00,,,0.00,WeatherCatV1.21B27,2013-09-18 00:28:00,
2013-09-17 17:33:00,61.5,35.7,30.23,SE,140,2.7,5.4,38,0.00,,,0.00,WeatherCatV1.21B27,2013-09-18 00:33:00,
2013-09-17 17:38:00,61.2,36.0,30.23,SE,135,0.0,4.0,39,0.00,,,0.00,WeatherCatV1.21B27,2013-09-18 00:38:00,
2013-09-17 17:43:00,61.0,36.5,30.23,SSE,168,6.3,6.3,40,0.00,,,0.00,WeatherCatV1.21B27,2013-09-18 00:43:00,
2013-09-17 17:48:00,60.6,36.2,30.23,North,8,3.1,3.6,40,0.00,,,0.00,WeatherCatV1.21B27,2013-09-18 00:48:00,
2013-09-17 17:53:00,60.4,36.6,30.23,SSW,206,2.7,3.1,41,0.00,,,0.00,WeatherCatV1.21B27,2013-09-18 00:53:00,
2013-09-17 17:58:00,60.1,36.3,30.23,NNW,344,2.2,2.7,41,0.00,,,0.00,WeatherCatV1.21B27,2013-09-18 00:58:00,
2013-09-17 18:03:00,60.1,36.3,30.20,WNW,294,2.7,4.0,41,0.00,,,0.00,WeatherCatV1.21B27,2013-09-18 01:03:00,
2013-09-17 18:08:00,59.9,36.8,30.20,NNW,346,0.0,4.0,42,0.00,,,0.00,WeatherCatV1.21B27,2013-09-18 01:08:00,
2013-09-17 18:13:00,59.7,36.6,30.20,WNW,283,2.7,4.0,42,0.00,,,0.00,WeatherCatV1.21B27,2013-09-18 01:13:00,
2013-09-17 18:18:00,59.7,37.2,30.23,NNE,25,3.1,4.9,43,0.00,,,0.00,WeatherCatV1.21B27,2013-09-18 01:18:00,
2013-09-17 18:23:00,59.7,37.2,30.23,NE,45,3.1,5.4,43,0.00,,,0.00,WeatherCatV1.21B27,2013-09-18 01:23:00,
2013-09-17 18:28:00,59.5,37.6,30.23,South,170,3.6,3.6,44,0.00,,,0.00,WeatherCatV1.21B27,2013-09-18 01:28:00,
2013-09-17 18:33:00,59.2,37.8,30.23,North,0,3.1,5.8,45,0.00,,,0.00,WeatherCatV1.21B27,2013-09-18 01:33:00,
2013-09-17 18:38:00,59.0,38.2,30.23,WNW,288,2.7,4.0,46,0.00,,,0.00,WeatherCatV1.21B27,2013-09-18 01:38:00,
2013-09-17 18:43:00,58.8,38.6,30.23,SE,146,0.0,2.2,47,0.00,,,0.00,WeatherCatV1.21B27,2013-09-18 01:43:00,
2013-09-17 18:48:00,58.8,38.6,30.23,NNE,26,0.0,4.0,47,0.00,,,0.00,WeatherCatV1.21B27,2013-09-18 01:48:00,
2013-09-17 18:53:00,58.6,39.0,30.23,NNE,31,0.0,0.0,48,0.00,,,0.00,WeatherCatV1.21B27,2013-09-18 01:53:00,
2013-09-17 18:58:00,58.5,39.4,30.23,NNE,31,0.0,0.0,49,0.00,,,0.00,WeatherCatV1.21B27,2013-09-18 01:58:00,
2013-09-17 19:03:00,58.5,39.9,30.23,SW,233,4.9,4.9,50,0.00,,,0.00,WeatherCatV1.21B27,2013-09-18 02:03:00,
2013-09-17 19:08:00,58.3,40.2,30.23,East,98,3.1,3.6,51,0.00,,,0.00,WeatherCatV1.21B27,2013-09-18 02:08:00,
2013-09-17 19:13:00,58.1,40.1,30.23,SE,129,0.0,4.0,51,0.00,,,0.00,WeatherCatV1.21B27,2013-09-18 02:13:00,
2013-09-17 19:18:00,57.9,40.9,30.23,East,79,3.1,5.4,53,0.00,,,0.00,WeatherCatV1.21B27,2013-09-18 02:18:00,
2013-09-17 19:23:00,57.9,40.9,30.23,ESE,102,0.0,4.0,53,0.00,,,0.00,WeatherCatV1.21B27,2013-09-18 02:23:00,
2013-09-17 19:28:00,57.9,41.4,30.23,South,173,0.0,5.8,54,0.00,,,0.00,WeatherCatV1.21B27,2013-09-18 02:28:00,
2013-09-17 19:33:00,57.9,41.4,30.23,South,174,0.0,4.0,54,0.00,,,0.00,WeatherCatV1.21B27,2013-09-18 02:33:00,
2013-09-17 19:38:00,57.9,41.4,30.23,South,177,0.0,5.4,54,0.00,,,0.00,WeatherCatV1.21B27,2013-09-18 02:38:00,
2013-09-17 19:43:00,57.9,41.4,30.23,SSW,197,2.2,3.1,54,0.00,,,0.00,WeatherCatV1.21B27,2013-09-18 02:43:00,
2013-09-17 19:48:00,57.9,41.4,30.23,WNW,283,3.1,4.0,54,0.00,,,0.00,WeatherCatV1.21B27,2013-09-18 02:48:00,
2013-09-17 19:53:00,58.1,41.5,30.23,ESE,106,2.2,3.1,54,0.00,,,0.00,WeatherCatV1.21B27,2013-09-18 02:53:00,
2013-09-17 19:58:00,58.1,41.1,30.23,ESE,107,2.2,4.0,53,0.00,,,0.00,WeatherCatV1.21B27,2013-09-18 02:58:00,
2013-09-17 20:03:00,57.9,40.9,30.26,South,184,0.0,3.1,53,0.00,,,0.00,WeatherCatV1.21B27,2013-09-18 03:03:00,
2013-09-17 20:08:00,57.9,41.4,30.26,East,86,0.0,0.0,54,0.00,,,0.00,WeatherCatV1.21B27,2013-09-18 03:08:00,
2013-09-17 20:13:00,57.6,41.0,30.26,South,170,0.0,4.0,54,0.00,,,0.00,WeatherCatV1.21B27,2013-09-18 03:13:00,
2013-09-17 20:18:00,57.6,41.0,30.23,ESE,102,0.0,0.0,54,0.00,,,0.00,WeatherCatV1.21B27,2013-09-18 03:18:00,
2013-09-17 20:23:00,57.6,41.0,30.23,South,170,0.0,4.0,54,0.00,,,0.00,WeatherCatV1.21B27,2013-09-18 03:23:00,
2013-09-17 20:28:00,57.4,40.9,30.23,South,170,0.0,0.0,54,0.00,,,0.00,WeatherCatV1.21B27,2013-09-18 03:28:00,
2013-09-17 20:33:00,57.4,40.4,30.26,South,170,0.0,0.0,53,0.00,,,0.00,WeatherCatV1.21B27,2013-09-18 03:33:00,
2013-09-17 20:38:00,57.2,40.7,30.26,NNE,27,2.7,3.6,54,0.00,,,0.00,WeatherCatV1.21B27,2013-09-18 03:38:00,
2013-09-17 20:43:00,57.4,40.9,30.26,South,178,0.0,2.7,54,0.00,,,0.00,WeatherCatV1.21B27,2013-09-18 03:43:00,
2013-09-17 20:48:00,57.2,40.2,30.26,South,190,3.6,6.3,53,0.00,,,0.00,WeatherCatV1.21B27,2013-09-18 03:48:00,
2013-09-17 20:53:00,57.2,40.2,30.26,East,79,0.0,0.0,53,0.00,,,0.00,WeatherCatV1.21B27,2013-09-18 03:53:00,
2013-09-17 20:58:00,57.2,40.2,30.26,ESE,123,0.0,0.0,53,0.00,,,0.00,WeatherCatV1.21B27,2013-09-18 03:58:00,
2013-09-17 21:01:00,57.0,40.1,30.26,ESE,123,0.0,0.0,53,0.00,,,0.00,WeatherCatV1.21B27,2013-09-18 04:01:00,
2013-09-17 21:06:00,57.0,40.5,30.26,South,176,0.0,2.2,54,0.00,,,0.00,WeatherCatV1.21B27,2013-09-18 04:06:00,
2013-09-17 21:11:00,56.8,40.8,30.26,WSW,246,5.4,5.4,55,0.00,,,0.00,WeatherCatV1.21B27,2013-09-18 04:11:00,
2013-09-17 21:16:00,56.8,40.8,30.26,ESE,114,2.2,4.0,55,0.00,,,0.00,WeatherCatV1.21B27,2013-09-18 04:16:00,
2013-09-17 21:21:00,56.7,40.7,30.26,ESE,114,0.0,0.0,55,0.00,,,0.00,WeatherCatV1.21B27,2013-09-18 04:21:00,
2013-09-17 21:26:00,56.5,41.4,30.26,NW,309,0.0,4.0,57,0.00,,,0.00,WeatherCatV1.21B27,2013-09-18 04:26:00,
2013-09-17 21:31:00,56.1,41.5,30.26,NW,326,0.0,0.0,58,0.00,,,0.00,WeatherCatV1.21B27,2013-09-18 04:31:00,
2013-09-17 21:36:00,55.6,44.0,30.29,NNE,33,0.0,5.4,65,0.00,,,0.00,WeatherCatV1.21B27,2013-09-18 04:36:00,
2013-09-17 21:41:00,55.2,43.7,30.29,NE,39,0.0,0.0,65,0.00,,,0.00,WeatherCatV1.21B27,2013-09-18 04:41:00,
2013-09-17 21:46:00,54.9,44.9,30.29,SSW,202,2.2,5.4,69,0.00,,,0.00,WeatherCatV1.21B27,2013-09-18 04:46:00,
2013-09-17 21:51:00,54.5,44.2,30.29,West,277,0.0,4.0,68,0.00,,,0.00,WeatherCatV1.21B27,2013-09-18 04:51:00,
2013-09-17 21:56:00,54.5,44.9,30.29,NNW,340,3.1,3.1,70,0.00,,,0.00,WeatherCatV1.21B27,2013-09-18 04:56:00,
2013-09-17 22:02:00,54.5,45.3,30.29,SE,141,0.0,2.7,71,0.00,,,0.00,WeatherCatV1.21B27,2013-09-18 05:02:00,
2013-09-17 22:06:00,54.5,45.7,30.29,WNW,292,2.7,4.9,72,0.00,,,0.00,WeatherCatV1.21B27,2013-09-18 05:06:00,
2013-09-17 22:12:00,54.5,45.7,30.29,NNW,337,0.0,3.6,72,0.00,,,0.00,WeatherCatV1.21B27,2013-09-18 05:12:00,
2013-09-17 22:17:00,54.5,46.0,30.29,WSW,257,0.0,4.0,73,0.00,,,0.00,WeatherCatV1.21B27,2013-09-18 05:17:00,
2013-09-17 22:22:00,54.5,45.3,30.26,West,280,0.0,3.1,71,0.00,,,0.00,WeatherCatV1.21B27,2013-09-18 05:22:00,
2013-09-17 22:27:00,54.7,45.1,30.26,SW,221,2.7,6.3,70,0.00,,,0.00,WeatherCatV1.21B27,2013-09-18 05:27:00,
2013-09-17 22:31:00,54.7,44.3,30.26,SW,216,4.0,5.4,68,0.00,,,0.00,WeatherCatV1.21B27,2013-09-18 05:31:00,
2013-09-17 22:36:00,54.7,43.9,30.26,South,185,3.1,4.5,67,0.00,,,0.00,WeatherCatV1.21B27,2013-09-18 05:36:00,
2013-09-17 22:41:00,54.3,43.6,30.26,SW,233,3.1,4.0,67,0.00,,,0.00,WeatherCatV1.21B27,2013-09-18 05:41:00,
2013-09-17 22:46:00,54.1,43.8,30.26,WNW,283,3.6,3.6,68,0.00,,,0.00,WeatherCatV1.21B27,2013-09-18 05:46:00,
2013-09-17 22:51:00,53.8,43.8,30.26,West,278,0.0,3.6,69,0.00,,,0.00,WeatherCatV1.21B27,2013-09-18 05:51:00,
2013-09-17 22:56:00,53.4,43.9,30.26,SE,144,0.0,0.0,70,0.00,,,0.00,WeatherCatV1.21B27,2013-09-18 05:56:00,
2013-09-17 23:01:00,53.4,44.2,30.26,SSW,204,0.0,0.0,71,0.00,,,0.00,WeatherCatV1.21B27,2013-09-18 06:01:00,
2013-09-17 23:06:00,53.2,44.5,30.26,South,182,0.0,0.0,72,0.00,,,0.00,WeatherCatV1.21B27,2013-09-18 06:06:00,
2013-09-17 23:11:00,53.1,44.3,30.26,South,182,0.0,0.0,72,0.00,,,0.00,WeatherCatV1.21B27,2013-09-18 06:11:00,
2013-09-17 23:16:00,53.1,44.6,30.26,South,182,0.0,0.0,73,0.00,,,0.00,WeatherCatV1.21B27,2013-09-18 06:16:00,
2013-09-17 23:21:00,53.1,44.6,30.26,South,182,0.0,0.0,73,0.00,,,0.00,WeatherCatV1.21B27,2013-09-18 06:21:00,
2013-09-17 23:26:00,53.1,45.0,30.26,ESE,111,2.7,2.7,74,0.00,,,0.00,WeatherCatV1.21B27,2013-09-18 06:26:00,
2013-09-17 23:31:00,53.1,45.3,30.26,South,178,0.0,0.0,75,0.00,,,0.00,WeatherCatV1.21B27,2013-09-18 06:31:00,
2013-09-17 23:36:00,53.1,45.3,30.29,South,178,0.0,0.0,75,0.00,,,0.00,WeatherCatV1.21B27,2013-09-18 06:36:00,
2013-09-17 23:41:00,53.1,45.3,30.29,South,178,0.0,0.0,75,0.00,,,0.00,WeatherCatV1.21B27,2013-09-18 06:41:00,
2013-09-17 23:46:00,53.1,45.7,30.29,South,178,0.0,0.0,76,0.00,,,0.00,WeatherCatV1.21B27,2013-09-18 06:46:00,
2013-09-17 23:51:00,53.1,45.7,30.26,South,178,0.0,0.0,76,0.00,,,0.00,WeatherCatV1.21B27,2013-09-18 06:51:00,
2013-09-17 23:56:00,53.1,46.0,30.26,South,178,0.0,0.0,77,0.00,,,0.00,WeatherCatV1.21B27,2013-09-18 06:56:00,